📊 Raw Sensor Data
Showing records 40851 to 40875 of 84,972 total
| ID | Distance (ft) | Battery V | Battery A | Int Temp (°F) | Int Humid (%) | Ext Temp (°F) | Solar V | RSSI | SNR | Time Stamp |
|---|---|---|---|---|---|---|---|---|---|---|
| 44134 | 15.3 | 3.93 | 0 | 84 | 41 | 78 | 5.10 | -70 | 8 | 06/21/2025 02:45 PM |
| 44133 | 15.3 | 4.08 | 0 | 83 | 41 | 77 | 5.10 | -69 | 8 | 06/21/2025 02:30 PM |
| 44132 | 15.3 | 3.93 | 0 | 82 | 41 | 77 | 5.10 | -68 | 7 | 06/21/2025 02:15 PM |
| 44131 | 15.3 | 3.93 | 0 | 82 | 41 | 76 | 5.10 | -67 | 7 | 06/21/2025 02:00 PM |
| 44130 | 15.3 | 3.93 | 0 | 81 | 41 | 77 | 5.10 | -69 | 7 | 06/21/2025 01:45 PM |
| 44129 | 15.2 | 3.93 | 0 | 80 | 42 | 75 | 5.10 | -69 | 6 | 06/21/2025 01:30 PM |
| 44128 | 15.3 | 4.05 | 0 | 79 | 42 | 74 | 5.10 | -69 | 7 | 06/21/2025 01:15 PM |
| 44127 | 15.3 | 3.93 | 0 | 78 | 42 | 74 | 5.10 | -70 | 8 | 06/21/2025 01:00 PM |
| 44126 | 15.3 | 3.93 | 0 | 77 | 42 | 74 | 5.10 | -70 | 8 | 06/21/2025 12:45 PM |
| 44125 | 15.3 | 3.93 | 0 | 77 | 42 | 74 | 5.10 | -69 | 8 | 06/21/2025 12:30 PM |
| 44124 | 15.3 | 3.93 | 0 | 76 | 42 | 74 | 5.10 | -69 | 8 | 06/21/2025 12:15 PM |
| 44123 | 15.3 | 3.93 | 0 | 75 | 42 | 73 | 5.10 | -69 | 8 | 06/21/2025 12:00 PM |
| 44122 | 15.3 | 3.93 | 0 | 75 | 42 | 72 | 5.10 | -68 | 7 | 06/21/2025 11:45 AM |
| 44121 | 15.3 | 3.93 | 0 | 74 | 42 | 73 | 5.10 | -69 | 7 | 06/21/2025 11:30 AM |
| 44120 | 15.3 | 3.93 | 0 | 73 | 42 | 73 | 5.10 | -72 | 7 | 06/21/2025 11:15 AM |
| 44119 | 15.3 | 4.11 | 0 | 73 | 42 | 72 | 5.10 | -70 | 7 | 06/21/2025 11:00 AM |
| 44118 | 15.3 | 3.93 | 0 | 72 | 42 | 73 | 5.10 | -70 | 7 | 06/21/2025 10:45 AM |
| 44117 | 15.3 | 3.93 | 0 | 71 | 42 | 70 | 5.10 | -69 | 8 | 06/21/2025 10:30 AM |
| 44116 | 15.3 | 3.93 | 0 | 70 | 42 | 68 | 5.10 | -68 | 8 | 06/21/2025 10:15 AM |
| 44115 | 15.3 | 3.93 | 0 | 69 | 42 | 69 | 5.10 | -69 | 8 | 06/21/2025 10:00 AM |
| 44114 | 15.3 | 4.09 | 0 | 69 | 42 | 68 | 5.10 | -69 | 8 | 06/21/2025 09:45 AM |
| 44113 | 15.3 | 3.93 | 0 | 68 | 42 | 67 | 5.10 | -68 | 8 | 06/21/2025 09:30 AM |
| 44112 | 15.3 | 3.93 | 0 | 68 | 42 | 67 | 5.10 | -69 | 7 | 06/21/2025 09:15 AM |
| 44111 | 15.3 | 4.08 | 0 | 67 | 42 | 67 | 5.10 | -68 | 7 | 06/21/2025 09:00 AM |
| 44110 | 15.3 | 3.93 | 0 | 65 | 42 | 66 | 5.10 | -69 | 7 | 06/21/2025 08:45 AM |